When you browse on this site, cookies collect data to enhance your experience and personalize the content and advertising you see.
Visit our Privacy Policy to learn more. By continuing to use the site, you agree to this use of cookies and data.
  • In Belgien
  • Länderverzeichnis
  • Für 7 Tage
  • Wassertemperatur
  • Wetterkarte
  • Widgets
  • user-avatar
    Anmelden

    Stündliche Wetter Ciudad Bolívar

    Heute, 6 April, Montag

    Zeit Temperatur Niederschläge Wind Luftdruck Luftfeuchtigkeit
    00:00 +30°C° 0 mm 6 m/S 751 mmHg 61%
    01:00 +29°C° 0 mm 5 m/S 752 mmHg 66%
    02:00 +28°C° 0 mm 5 m/S 752 mmHg 70%
    03:00 +28°C° 0 mm 5 m/S 752 mmHg 72%
    04:00 +28°C° 0 mm 5 m/S 752 mmHg 74%
    05:00 +28°C° 0 mm 5 m/S 752 mmHg 76%
    06:00 +28°C° 0 mm 5 m/S 752 mmHg 73%
    07:00 +29°C° 0 mm 5 m/S 753 mmHg 70%
    08:00 +29°C° 0 mm 5 m/S 754 mmHg 67%
    09:00 +32°C° 0 mm 5 m/S 754 mmHg 60%
    10:00 +34°C° 0 mm 5 m/S 754 mmHg 54%
    11:00 +36°C° 0 mm 5 m/S 754 mmHg 47%
    12:00 +37°C° 0 mm 5 m/S 753 mmHg 42%
    13:00 +39°C° 0 mm 5 m/S 751 mmHg 38%
    14:00 +40°C° 0 mm 5 m/S 750 mmHg 34%
    15:00 +40°C° 0 mm 5 m/S 750 mmHg 35%
    16:00 +39°C° 0 mm 6 m/S 750 mmHg 36%
    17:00 +39°C° 0 mm 6 m/S 749 mmHg 37%
    18:00 +36°C° 0 mm 6 m/S 750 mmHg 42%
    19:00 +35°C° 0 mm 6 m/S 750 mmHg 46%
    20:00 +34°C° 0 mm 6 m/S 751 mmHg 51%
    21:00 +33°C° 0 mm 6 m/S 752 mmHg 54%
    22:00 +32°C° 0 mm 6 m/S 752 mmHg 58%
    23:00 +30°C° 0 mm 6 m/S 753 mmHg 61%

    Morgen, 7 April, Dienstag

    Zeit Temperatur Niederschläge Wind Luftdruck Luftfeuchtigkeit
    00:00 +30°C° 0 mm 6 m/S 753 mmHg 64%
    01:00 +29°C° 0 mm 5 m/S 752 mmHg 67%
    02:00 +28°C° 0 mm 5 m/S 752 mmHg 70%
    03:00 +28°C° 0 mm 5 m/S 752 mmHg 72%
    04:00 +27°C° 0 mm 4 m/S 752 mmHg 74%
    05:00 +27°C° 0 mm 4 m/S 752 mmHg 76%
    06:00 +28°C° 0 mm 4 m/S 753 mmHg 73%
    07:00 +28°C° 0 mm 5 m/S 753 mmHg 71%
    08:00 +29°C° 0 mm 5 m/S 754 mmHg 68%
    09:00 +32°C° 0 mm 5 m/S 754 mmHg 61%
    10:00 +34°C° 0 mm 5 m/S 754 mmHg 54%
    11:00 +36°C° 0 mm 5 m/S 754 mmHg 47%
    12:00 +37°C° 0 mm 4 m/S 753 mmHg 42%
    13:00 +40°C° 0 mm 4 m/S 752 mmHg 37%
    14:00 +41°C° 0 mm 4 m/S 750 mmHg 32%
    15:00 +41°C° 0 mm 5 m/S 750 mmHg 33%
    16:00 +40°C° 0 mm 5 m/S 749 mmHg 34%
    17:00 +40°C° 0 mm 6 m/S 749 mmHg 35%
    18:00 +38°C° 0 mm 6 m/S 749 mmHg 41%
    19:00 +35°C° 0 mm 7 m/S 750 mmHg 47%
    20:00 +34°C° 0 mm 7 m/S 750 mmHg 53%
    21:00 +33°C° 0 mm 6 m/S 751 mmHg 56%
    22:00 +32°C° 0 mm 6 m/S 752 mmHg 60%
    23:00 +30°C° 0 mm 6 m/S 753 mmHg 63%

    übermorgen, 8 April, Mittwoch

    Zeit Temperatur Niederschläge Wind Luftdruck Luftfeuchtigkeit
    00:00 +29°C° 0 mm 6 m/S 752 mmHg 67%
    01:00 +29°C° 0 mm 6 m/S 752 mmHg 70%
    02:00 +28°C° 0 mm 5 m/S 751 mmHg 74%
    03:00 +27°C° 0 mm 5 m/S 751 mmHg 75%
    04:00 +27°C° 0 mm 5 m/S 751 mmHg 77%
    05:00 +27°C° 0 mm 5 m/S 752 mmHg 79%
    06:00 +28°C° 0 mm 5 m/S 752 mmHg 76%
    07:00 +28°C° 0 mm 5 m/S 752 mmHg 72%
    08:00 +29°C° 0 mm 5 m/S 753 mmHg 69%
    09:00 +32°C° 0 mm 5 m/S 753 mmHg 62%
    10:00 +33°C° 0 mm 5 m/S 753 mmHg 55%
    11:00 +35°C° 0 mm 5 m/S 753 mmHg 47%
    12:00 +37°C° 0 mm 5 m/S 752 mmHg 43%
    13:00 +39°C° 0 mm 5 m/S 751 mmHg 38%
    14:00 +40°C° 0 mm 5 m/S 750 mmHg 34%
    15:00 +40°C° 0 mm 5 m/S 749 mmHg 34%
    16:00 +40°C° 0 mm 5 m/S 749 mmHg 35%
    17:00 +40°C° 0 mm 5 m/S 748 mmHg 35%
    18:00 +39°C° 0 mm 5 m/S 749 mmHg 38%
    19:00 +36°C° 0 mm 6 m/S 749 mmHg 41%
    20:00 +35°C° 0 mm 6 m/S 750 mmHg 44%
    21:00 +34°C° 0 mm 6 m/S 750 mmHg 49%
    22:00 +33°C° 0 mm 6 m/S 751 mmHg 53%
    23:00 +32°C° 0 mm 7 m/S 752 mmHg 57%

    9 April, Donnerstag

    Zeit Temperatur Niederschläge Wind Luftdruck Luftfeuchtigkeit
    00:00 +30°C° 0 mm 6 m/S 752 mmHg 62%
    01:00 +29°C° 0 mm 6 m/S 751 mmHg 67%
    02:00 +27°C° 0 mm 6 m/S 751 mmHg 72%
    03:00 +27°C° 0 mm 5 m/S 751 mmHg 73%
    04:00 +27°C° 0 mm 4 m/S 751 mmHg 74%
    05:00 +27°C° 0 mm 4 m/S 751 mmHg 75%
    06:00 +27°C° 0 mm 4 m/S 752 mmHg 73%
    07:00 +28°C° 0 mm 4 m/S 752 mmHg 70%
    08:00 +29°C° 0 mm 4 m/S 752 mmHg 67%
    09:00 +32°C° 0 mm 4 m/S 752 mmHg 59%
    10:00 +34°C° 0 mm 4 m/S 752 mmHg 51%
    11:00 +36°C° 0 mm 4 m/S 752 mmHg 42%
    12:00 +38°C° 0 mm 4 m/S 751 mmHg 37%
    13:00 +41°C° 0 mm 4 m/S 750 mmHg 32%
    14:00 +42°C° 0 mm 4 m/S 749 mmHg 26%
    15:00 +42°C° 0 mm 4 m/S 748 mmHg 26%
    16:00 +42°C° 0 mm 5 m/S 748 mmHg 26%
    17:00 +42°C° 0 mm 5 m/S 748 mmHg 26%
    18:00 +40°C° 0 mm 5 m/S 748 mmHg 31%
    19:00 +37°C° 0 mm 5 m/S 749 mmHg 37%
    20:00 +36°C° 0 mm 6 m/S 749 mmHg 43%
    21:00 +34°C° 0 mm 6 m/S 750 mmHg 47%
    22:00 +33°C° 0 mm 6 m/S 751 mmHg 52%
    23:00 +32°C° 0 mm 6 m/S 751 mmHg 57%

    10 April, Freitag

    Zeit Temperatur Niederschläge Wind Luftdruck Luftfeuchtigkeit
    00:00 +30°C° 0 mm 6 m/S 751 mmHg 63%
    01:00 +29°C° 0 mm 6 m/S 751 mmHg 69%
    02:00 +28°C° 0 mm 5 m/S 751 mmHg 75%
    03:00 +28°C° 0 mm 5 m/S 751 mmHg 77%
    04:00 +27°C° 0 mm 5 m/S 751 mmHg 78%
    05:00 +27°C° 0 mm 4 m/S 751 mmHg 80%
    06:00 +28°C° 0 mm 4 m/S 752 mmHg 76%
    07:00 +28°C° 0 mm 5 m/S 753 mmHg 73%
    08:00 +29°C° 0 mm 5 m/S 753 mmHg 69%
    09:00 +30°C° 0 mm 5 m/S 753 mmHg 63%
    10:00 +32°C° 0 mm 5 m/S 753 mmHg 57%
    11:00 +34°C° 0 mm 4 m/S 753 mmHg 51%
    12:00 +36°C° 0 mm 4 m/S 752 mmHg 43%
    13:00 +38°C° 0 mm 4 m/S 751 mmHg 35%
    14:00 +41°C° 0 mm 4 m/S 750 mmHg 27%
    15:00 +41°C° 0 mm 4 m/S 749 mmHg 26%
    16:00 +41°C° 0 mm 5 m/S 749 mmHg 26%
    17:00 +41°C° 0 mm 5 m/S 748 mmHg 25%
    18:00 +40°C° 0 mm 5 m/S 749 mmHg 29%
    19:00 +37°C° 0 mm 5 m/S 750 mmHg 33%
    20:00 +35°C° 0 mm 5 m/S 750 mmHg 37%
    21:00 +34°C° 0 mm 5 m/S 751 mmHg 43%
    22:00 +33°C° 0 mm 6 m/S 752 mmHg 48%
    23:00 +32°C° 0 mm 6 m/S 752 mmHg 54%

    11 April, Samstag

    Zeit Temperatur Niederschläge Wind Luftdruck Luftfeuchtigkeit
    00:00 +30°C° 0 mm 6 m/S 752 mmHg 59%
    01:00 +28°C° 0 mm 6 m/S 752 mmHg 65%
    02:00 +27°C° 0 mm 5 m/S 752 mmHg 70%
    03:00 +27°C° 0 mm 5 m/S 752 mmHg 73%
    04:00 +26°C° 0 mm 5 m/S 752 mmHg 76%
    05:00 +26°C° 0 mm 5 m/S 753 mmHg 79%
    06:00 +27°C° 0 mm 5 m/S 753 mmHg 76%
    07:00 +27°C° 0 mm 5 m/S 754 mmHg 73%
    08:00 +28°C° 0 mm 5 m/S 754 mmHg 70%
    09:00 +30°C° 0 mm 5 m/S 754 mmHg 59%
    10:00 +33°C° 0 mm 5 m/S 754 mmHg 48%
    11:00 +36°C° 0 mm 5 m/S 754 mmHg 38%
    12:00 +39°C° 0 mm 5 m/S 752 mmHg 32%
    13:00 +40°C° 0 mm 5 m/S 751 mmHg 26%
    14:00 +42°C° 0 mm 4 m/S 750 mmHg 20%
    15:00 +42°C° 0 mm 5 m/S 750 mmHg 20%
    16:00 +42°C° 0 mm 5 m/S 749 mmHg 20%
    17:00 +42°C° 0 mm 5 m/S 749 mmHg 20%
    18:00 +40°C° 0 mm 5 m/S 749 mmHg 24%
    19:00 +38°C° 0 mm 6 m/S 750 mmHg 27%
    20:00 +35°C° 0 mm 6 m/S 751 mmHg 31%
    21:00 +34°C° 0 mm 6 m/S 751 mmHg 38%
    22:00 +32°C° 0 mm 6 m/S 752 mmHg 44%
    23:00 +30°C° 0 mm 7 m/S 753 mmHg 51%
    Mehr zeigen